Terug naar catalogus

COSMOS 2252

ActiefMilitairPO
NORAD 22687·PAYLOAD·🇷🇺 Russia

Gelanceerd Jun 24, 1993 vanaf Plesetsk Cosmodrome

Loading…

Volgende Passages (komende 24 uur)

TLE

VersSource: Space-Track

Epoch: Sep 14, 2026, 18:09 UTC

1 22687U 93038A   26257.75682485  .00000034  00000-0  12709-3 0  9994
2 22687  82.5864 170.7477 0008569 126.2880 260.3866 12.63335189531830

Volg COSMOS 2252 in realtime met AllMySat

Download on the App Store